TimeCST,TemperatureF,Dew PointF,Humidity,Sea Level PressureIn,VisibilityMPH,Wind Direction,Wind SpeedMPH,Gust SpeedMPH,PrecipitationIn,Events,Conditions,WindDirDegrees,DateUTC
12:53 AM,46.9,28.9,50,30.35,10.0,SSE,6.9,-,N/A,,Clear,160,2012-11-17 06:53:00
1:53 AM,42.1,28.9,60,30.35,10.0,South,4.6,-,N/A,,Clear,190,2012-11-17 07:53:00
2:53 AM,46.0,28.9,51,30.34,10.0,SSE,9.2,-,N/A,,Clear,160,2012-11-17 08:53:00
3:53 AM,45.0,28.9,53,30.33,10.0,SSE,10.4,-,N/A,,Clear,160,2012-11-17 09:53:00
4:53 AM,42.1,28.9,60,30.33,10.0,South,5.8,-,N/A,,Clear,180,2012-11-17 10:53:00
5:53 AM,39.0,28.0,65,30.35,9.0,South,6.9,-,N/A,,Clear,190,2012-11-17 11:53:00
6:53 AM,37.4,28.4,70,30.35,9.0,South,9.2,-,N/A,,Clear,170,2012-11-17 12:53:00
7:53 AM,42.1,30.0,62,30.38,8.0,South,12.7,-,N/A,,Clear,180,2012-11-17 13:53:00
8:53 AM,46.9,28.9,50,30.38,9.0,South,13.8,-,N/A,,Clear,180,2012-11-17 14:53:00
9:53 AM,52.0,28.9,41,30.37,10.0,South,20.7,25.3,N/A,,Clear,180,2012-11-17 15:53:00
10:53 AM,55.9,28.9,36,30.37,10.0,South,17.3,-,N/A,,Clear,180,2012-11-17 16:53:00
11:53 AM,57.9,27.0,31,30.35,10.0,South,17.3,-,N/A,,Clear,170,2012-11-17 17:53:00
12:53 PM,60.1,28.0,30,30.31,10.0,South,15.0,-,N/A,,Clear,170,2012-11-17 18:53:00
1:53 PM,61.0,27.0,27,30.28,10.0,South,15.0,23.0,N/A,,Clear,180,2012-11-17 19:53:00
2:53 PM,62.1,27.0,26,30.27,10.0,South,16.1,-,N/A,,Clear,170,2012-11-17 20:53:00
3:53 PM,61.0,27.0,27,30.25,10.0,SSE,16.1,21.9,N/A,,Clear,160,2012-11-17 21:53:00
4:53 PM,57.9,27.0,31,30.26,10.0,SSE,12.7,-,N/A,,Clear,160,2012-11-17 22:53:00
5:53 PM,55.9,27.0,33,30.25,10.0,SSE,10.4,-,N/A,,Clear,150,2012-11-17 23:53:00
6:53 PM,55.0,27.0,34,30.26,10.0,SSE,11.5,-,N/A,,Clear,160,2012-11-18 00:53:00
7:53 PM,53.1,27.0,37,30.25,10.0,SSE,11.5,-,N/A,,Clear,160,2012-11-18 01:53:00
8:53 PM,51.1,27.0,39,30.26,10.0,SSE,11.5,-,N/A,,Clear,160,2012-11-18 02:53:00
9:53 PM,51.1,26.1,38,30.26,10.0,SSE,13.8,-,N/A,,Clear,160,2012-11-18 03:53:00
10:53 PM,50.0,27.0,41,30.25,10.0,South,13.8,-,N/A,,Clear,170,2012-11-18 04:53:00
11:53 PM,50.0,27.0,41,30.25,10.0,SSE,15.0,-,N/A,,Clear,160,2012-11-18 05:53:00